|
NORAD ID: 18881 Int'l Code: 1988-013A
Perigee: 4,381.7 km
Apogee: 36,004.8 km
Inclination: 68.7 °
Period: 718.1 minutes
Semi major axis: 26564 km
Launch date: February 26, 1988
Source: Commonwealth of Independent States (former USSR) (CIS)
Two Line Element Set (TLE):
1 18881U 88013A 13170.41829346 .00000000 00000-0 10000-3 0 8369
2 18881 068.7484 315.3514 5952197 162.4674 233.2620 02.00519707185446
Source:
NASA's NSSDC Master Catalog entry for COSMOS 1922
|